Miscellaneous Local Product
Issued by NWS Hastings, NE

Home | Current Version | Previous Version | Text Only | Print | Product List | Glossary Off
Versions: 1 2 3 4 5 6 7 8 9 10 11 12 13 14 15 16 17 18 19 20 21 22 23 24 25 26 27 28 29 30 31 32 33 34 35 36 37 38 39 40 41 42 43 44 45 46 47 48 49 50

000
AXUS43 KGID 231902
MISGRI

GID CWA HOURLY WEATHER ROUNDUP
NATIONAL WEATHER SERVICE HASTINGS NE
100 PM CST TUE DEC 23 2014

NOTE: "FAIR" INDICATES FEW OR NO CLOUDS BELOW 12,000 FEET WITH NO
SIGNIFICANT WEATHER AND/OR OBSTRUCTIONS TO VISIBILITY.

...SOUTH CENTRAL NEBRASKA...

CITY           SKY/WX    TMP DP  RH WIND       PRES   REMARKS
GRAND ISLAND   FLURRIES  34  30  85 N23G32    29.84R WCI  22
HASTINGS       LGT SNOW  34  30  85 N28G35    29.82R FOG     WCI  21
KEARNEY        CLOUDY    34  27  75 NW26G32   29.86R WCI  21
ORD            CLOUDY    33  27  78 N30G40    29.87R WCI  19
YORK           MIX PCPN  34  32  93 N16       29.80R WCI  23
AURORA         LGT SNOW  34  33  97 N22G29    29.81R WCI  22
LEXINGTON      CLOUDY    33  27  80 N26G36    29.90S WCI  20
HOLDREGE       CLOUDY    33  27  80 N24G33    29.86S WCI  20
HEBRON         LGT RAIN  35  32  90 N14G21    29.79S WCI  26

...NEBRASKA PANHANDLE...

CITY           SKY/WX    TMP DP  RH WIND       PRES   REMARKS
CHADRON        CLOUDY    30  24  78 N7        30.12F WCI  23
ALLIANCE       PTSUNNY   29  24  82 N24G30    30.06S WCI  15
SCOTTSBLUFF    MOSUNNY   33  21  61 NW31G46   30.12R WCI  19
SIDNEY         CLOUDY    30  21  69 N31G44    30.06R WCI  15

...WESTERN AND NORTH CENTRAL NEBRASKA...

CITY           SKY/WX    TMP DP  RH WIND       PRES   REMARKS
VALENTINE      LGT SNOW  28  23  81 NW23G37   30.01R WCI  14
AINSWORTH      LGT SNOW  28  25  87 NW28G38   29.97R WCI  12
ONEILL         LGT SNOW  33  32  96 NW25G33   29.89S WCI  20
BROKEN BOW     LGT SNOW  31  26  82 N28G41    29.90S WCI  17
IMPERIAL       HVY SNOW  29  24  82 N29G44    30.00F VSB 1/4 WCI  14
NORTH PLATTE   CLOUDY    31  23  72 NW28G37   29.97R WCI  17
MCCOOK         CLOUDY    32  24  72 N24G38    29.95R WCI  19

...EASTERN NEBRASKA...

CITY           SKY/WX    TMP DP  RH WIND       PRES   REMARKS
NORFOLK        CLOUDY    34  32  92 NW18G29   29.81R FOG     WCI  23
SO SIOUX CITY  MIX PCPN  37  33  85 N17       29.78R WCI  27
TEKAMAH        LGT RAIN  37  35  92 N21G26    29.77R FOG     WCI  26
COLUMBUS       CLOUDY    34  28  80 N17G25    29.82R WCI  23
ALBION         CLOUDY    34  30  86 N16G26    29.83R WCI  24
OMAHA EPPLEY   LGT SNOW  36  34  92 N18       29.76S FOG     WCI  26
MILLARD        RAIN      37  33  89 N9        29.76R WCI  30
LINCOLN        LGT RAIN  36  33  89 N18       29.79R FOG     WCI  26
NEBRASKA CITY  DRIZZLE   37  36  95 N16       29.73S WCI  27
BEATRICE       RAIN      36  34  92 N18       29.76S WCI  26
FALLS CITY     CLOUDY    38  33  82 NW10G20   29.73R WCI  31

...NORTHERN KANSAS...

CITY           SKY/WX    TMP DP  RH WIND       PRES   REMARKS
GOODLAND       LGT SNOW  30  25  81 N37G47    29.97S WCI  14
HILL CITY      LGT SNOW  34  27  75 N29G38    29.91R WCI  20
NORTON         LGT SNOW  34  27  75 NW28G37   29.89R WCI  20
PHILLIPSBURG   CLOUDY    37  30  75 NW17G33   29.89R WCI  28
SMITH CENTER   LGT SNOW  34  28  80 N29G35    29.85R WCI  20
BELOIT         CLOUDY    36  34  93 NW15      29.82R WCI  26
HAYS           CLOUDY    36  21  55 N29G36    29.86S WCI  23
RUSSELL        LGT SNOW  34  30  85 N24G35    29.84S FOG     WCI  21
CONCORDIA      LGT RAIN  35  34  96 N13G23    29.80R WCI  26
SALINA         CLOUDY    37  32  82 NW21      29.81S WCI  26
TOPEKA         CLOUDY    40  32  73 NW7       29.77R



USA.gov is the U.S. government's official web portal to all federal, state and local government web resources and services.